Location: Ottawa
(45.4167°N, 75.7000°W)
Time: 17:28:15
(UTC-04:00)

PCSat - Visible Passes

Search period start: 15 July 2018 00:00
Search period end: 25 July 2018 00:00
Orbit: 784 x 796 km, 67.1° (Epoch: 14 July)

Date Brightness Start Highest point End Pass type
(mag) Time Alt. Az. Time Alt. Az. Time Alt. Az.
15 Jul 11.4 00:50:19 10° NNW 00:54:53 26° NE 00:59:25 10° E visible
15 Jul 9.5 02:33:19 10° NW 02:38:42 63° WSW 02:40:47 36° S visible
16 Jul 11.7 00:19:35 10° N 00:23:43 21° NE 00:27:50 10° E visible
16 Jul 9.5 02:02:20 10° NNW 02:07:48 84° WSW 02:09:45 41° SSE visible
16 Jul 11.4 03:48:05 10° WNW 03:50:19 13° WSW 03:50:24 13° WSW visible
16 Jul 11.9 23:48:54 10° N 23:52:31 18° NE 23:56:07 10° ENE visible
17 Jul 9.6 01:31:24 10° NNW 01:36:52 74° ENE 01:38:51 40° SE visible
17 Jul 11.1 03:16:07 10° WNW 03:19:30 18° WSW 03:19:30 18° WSW visible
17 Jul 12.0 23:18:18 10° N 23:21:16 15° NNE 23:24:14 10° ENE visible
18 Jul 10.0 01:00:31 10° NNW 01:05:53 56° NE 01:08:04 34° ESE visible
18 Jul 10.8 02:44:37 10° NW 02:48:44 24° WSW 02:48:44 24° WSW visible
18 Jul 12.1 22:47:49 10° N 22:49:59 12° NNE 22:52:09 10° NE visible
19 Jul 10.5 00:29:40 10° NNW 00:34:52 43° NE 00:37:21 27° ESE visible
19 Jul 10.4 02:13:20 10° NW 02:18:02 33° WSW 02:18:02 33° WSW visible
19 Jul 12.3 22:17:47 10° NNE 22:18:39 10° NNE 22:19:32 10° NNE visible
19 Jul 10.9 23:58:51 10° NNW 00:03:48 34° NE 00:06:45 20° E visible
20 Jul 10.0 01:42:10 10° NW 01:47:19 44° WSW 01:47:25 44° WSW visible
20 Jul 11.2 23:28:05 10° NNW 23:32:42 27° NE 23:36:10 15° E visible
21 Jul 9.6 01:11:07 10° NW 01:16:28 60° WSW 01:16:51 58° SW visible
21 Jul 11.5 22:57:20 10° NNW 23:01:32 22° NE 23:05:40 10° E visible
22 Jul 9.4 00:40:07 10° NW 00:45:35 80° WSW 00:46:21 65° S visible
22 Jul 11.7 02:26:08 10° W 02:27:02 11° W 02:27:02 11° W visible
22 Jul 11.7 22:26:38 10° N 22:30:20 18° NE 22:34:01 10° ENE visible
23 Jul 9.6 00:09:11 10° NNW 00:14:39 78° ENE 00:15:54 54° SE visible
23 Jul 11.4 01:54:00 10° WNW 01:56:35 16° W 01:56:35 16° W visible
23 Jul 11.8 21:56:00 10° N 21:59:05 15° NNE 22:02:09 10° ENE visible
23 Jul 9.9 23:38:17 10° NNW 23:43:40 59° NE 23:45:29 39° ESE visible
24 Jul 11.1 01:22:28 10° WNW 01:26:10 23° W 01:26:10 23° W visible
24 Jul 11.9 21:25:30 10° N 21:27:49 13° NNE 21:30:06 10° NE visible
24 Jul 10.3 23:07:26 10° NNW 23:12:40 45° NE 23:15:07 28° ESE visible
